Location: Unspecified
(0.0000°N, 0.0000°E)
Time: 18:52:57
(UTC+00:00)

Vanguard 1 - Pass Details

Date: 23 November 2019
Orbit: 652 x 3831 km, 34.2° (Epoch: 05 December)

Event Time Altitude Azimuth Distance (km) Brightness Sun altitude
Rises 01:25:29 0° 220° (SW) 6,753 14.4 -58.4°
Reaches altitude 10° 01:31:02 10° 208° (SSW) 6,165 14.1 -57.3°
Maximum altitude 01:47:50 27° 155° (SSE) 5,515 14.0 -54.0°
Drops below altitude 10° 02:05:45 10° 104° (ESE) 6,679 14.7 -50.3°
Sets 02:11:58 0° 93° (E) 7,394 15.1 -49.0°
